軌道要素
Epoch 2024 Mar. 31.0 TT = JDT 2460400.5
T 2023 Sept. 7.72555 TT Rudenko
q 2.0394168 (2000.0) P Q
z +0.0013531 Peri. 337.46063 -0.47086001 -0.75134651
+/-0.0000005 Node 223.70567 -0.67241516 -0.03361230
e 0.9972405 Incl. 137.99850 -0.57109430 +0.65905132
>From 212 observations 2023 May 27-2024 Mar. 19, mean residual 0".7.
|